Location: Unspecified
(0.0000°N, 0.0000°E)
Time: 13:51:16
(UTC+00:00)

Hubble Space Telescope - Pass Details

Date: 01 April 2020
Orbit: 536 x 540 km, 28.5° (Epoch: 01 April)

Event Time Altitude Azimuth Distance (km) Brightness Sun altitude
Exits shadow 04:57:03 - 334° (NNW) 2,300 3.8 -16.6°
Reaches altitude 10° 04:58:55 10° 350° (N) 1,779 3.4 -16.2°
Maximum altitude 05:01:27 16° 28° (NNE) 1,456 3.4 -15.5°
Drops below altitude 10° 05:03:58 10° 66° (ENE) 1,782 4.6 -14.9°
Sets 05:06:59 0° 89° (E) 2,675 6.3 -14.2°
